Time,TemperatureF,DewpointF,PressureIn,WindDirection,WindDirectionDegrees,WindSpeedMPH,WindSpeedGustMPH,Humidity,HourlyPrecipIn,Conditions,Clouds,dailyrainin,SoftwareType,DateUTC
2013-09-28 16:02:00,79.2,45.1,30.07,West,272,7.0,12.0,30,0.00,,,0.00,meteohub,2013-09-28 23:02:00,
2013-09-28 16:22:00,78.4,45.3,30.04,West,271,7.0,13.0,31,0.00,,,0.00,meteohub,2013-09-28 23:22:00,
2013-09-28 16:42:00,77.7,44.6,30.04,WNW,286,15.0,15.0,31,0.00,,,0.00,meteohub,2013-09-28 23:42:00,
2013-09-28 17:02:00,78.1,45.0,30.04,West,264,11.0,13.0,31,0.00,,,0.00,meteohub,2013-09-29 00:02:00,
2013-09-28 17:22:00,77.7,44.6,30.04,WSW,244,8.0,11.0,31,0.00,,,0.00,meteohub,2013-09-29 00:22:00,
2013-09-28 17:42:00,77.4,44.4,30.04,WNW,290,8.0,11.0,31,0.00,,,0.00,meteohub,2013-09-29 00:42:00,
2013-09-28 18:02:00,77.2,44.2,30.04,WNW,287,9.0,9.0,31,0.00,,,0.00,meteohub,2013-09-29 01:02:00,
2013-09-28 18:22:00,75.2,42.4,30.04,WNW,284,0.0,6.0,31,0.00,,,0.00,meteohub,2013-09-29 01:22:00,
2013-09-28 18:42:00,72.9,41.4,30.07,NW,320,4.0,4.0,32,0.00,,,0.00,meteohub,2013-09-29 01:42:00,
2013-09-28 19:02:00,72.3,40.8,30.07,NW,314,0.0,9.0,32,0.00,,,0.00,meteohub,2013-09-29 02:02:00,
2013-09-28 19:22:00,70.0,38.8,30.07,NW,316,0.0,0.0,32,0.00,,,0.00,meteohub,2013-09-29 02:22:00,
2013-09-28 19:42:00,68.2,37.9,30.07,NW,316,0.0,0.0,33,0.00,,,0.00,meteohub,2013-09-29 02:42:00,
2013-09-28 20:02:00,66.0,36.1,30.07,NW,317,0.0,0.0,33,0.00,,,0.00,meteohub,2013-09-29 03:02:00,
2013-09-28 20:22:00,64.6,34.9,30.07,NW,316,0.0,0.0,33,0.00,,,0.00,meteohub,2013-09-29 03:22:00,
2013-09-28 20:42:00,63.7,34.7,30.10,NW,317,0.0,0.0,34,0.00,,,0.00,meteohub,2013-09-29 03:42:00,
2013-09-28 21:02:00,62.6,33.8,30.10,NW,317,0.0,0.0,34,0.00,,,0.00,meteohub,2013-09-29 04:02:00,
2013-09-28 21:22:00,61.3,32.7,30.10,NW,316,0.0,0.0,34,0.00,,,0.00,meteohub,2013-09-29 04:22:00,
2013-09-28 21:42:00,60.6,32.9,30.10,NW,316,0.0,0.0,35,0.00,,,0.00,meteohub,2013-09-29 04:42:00,
2013-09-28 22:02:00,60.4,32.7,30.10,NW,316,0.0,0.0,35,0.00,,,0.00,meteohub,2013-09-29 05:02:00,
2013-09-28 22:22:00,60.1,32.4,30.10,NW,317,0.0,0.0,35,0.00,,,0.00,meteohub,2013-09-29 05:22:00,
2013-09-28 22:42:00,59.4,31.6,30.10,NW,316,0.0,0.0,35,0.00,,,0.00,meteohub,2013-09-29 05:42:00,
2013-09-28 23:02:00,59.7,32.0,30.10,NW,316,0.0,0.0,35,0.00,,,0.00,meteohub,2013-09-29 06:02:00,
2013-09-28 23:22:00,59.2,31.5,30.13,NW,316,0.0,0.0,35,0.00,,,0.00,meteohub,2013-09-29 06:22:00,
2013-09-28 23:42:00,58.5,31.6,30.13,NW,316,0.0,0.0,36,0.00,,,0.00,meteohub,2013-09-29 06:42:00,